DELTA 1 DEB, 10177

Orbit data source: Space-Track

DELTA 1 DEB, 10177 is space debris in LEO originally from a launch on Thu, 14 Jul 1977 UTC launched from the Air Force Eastern Test Range (AFETR). Debris objects in space refer to the collection of defunct objects orbiting the Earth. Examples of debris include non-operational satellites, rocket bodies, and fragments generated from explosions, collisions, or faulty payload assembly.

Loading next visibility...
Identifier
10177, 1977-065F
Orbit
LEO
Country
Flag of USUS
Related business
Manufacturer
Unknown
Mission
Spacecraft
Bus & Motor
Unknown
Mass
Unknown
Launch date (UTC)
1977-07-14 (49 years ago)
Launch vehicle
Unknown
Launch site
Air Force Eastern Test Range (AFETR)
Object type
Payload
Rocket body
Debris
Shape & HBR
Unknown shape, 0.1 m
Radar Cross Section
Medium (>0.1 m² and <1 m²)

Expand to show TLE details & history
Last TLE update: 6 hours ago

TLE from 6 hours ago
0 DELTA 1 DEB
1 10177U 77065F   26263.15962050  .00004985  00000-0  72319-3 0  9999
2 10177  28.2342 292.3665 0466121 315.8950  40.5325 14.20205435310552
Epoch: 2026-09-20T03:49Z
TLE epoch observation values (Epoch: 2026-09-20T03:49:51.211Z)
Latitude
-0.00005°
Longitude
-124.15477°
Altitude
574.845 km
Speed
7.705 km/s
True Right ascension
19h 29m 27s
True Declination
0° 00' 00"
Sunlit
Object was in full shadow at epoch
Visualization orbit readout
Latitude
Unknown
Longitude
Unknown
Altitude
Unknown
Speed
Unknown
Apparent Right ascension
Unknown
Apparent Declination
Unknown
Sunlit
N/A
Visualization observer readout
Local Sidereal Time
02:37:52
Azimuth
Unknown
Elevation
Unknown
Doppler factor
Unknown
Orbital elements
Apogee altitude
1,164.667 km
Perigee altitude
492.812 km
Semi-major axis
7,206.876 km
Eccentricity
0.04661
Inclination
28.2342°
RAAN
292.3665°
Arg. of periapsis
315.895°
True anomaly
44.16182°
Mean anomaly
40.5325°
Eccentric anomaly
42.33097°
Mean motion
3.5475 °/min
Orbital period
101.48 mins
BSTAR
0.00072319
Loading maneuver chart data...
Computing Atmospheric mass density...
Loading historical data...
Loading historical data...
Loading historical data...
Loading historical data...
Loading historical data...
Loading historical data...
Loading historical data...

Documentation

Showing up to 5 results
|